Location: Bacea
(45.9500°N, 22.6667°E)
Time: 10:45:45
(UTC+00:00)

Cosmos 724 - Pass Details

Date: 16 October 2021
Orbit: 857 x 937 km, 65.6° (Epoch: 07 December)

Event Time Altitude Azimuth Distance (km) Brightness Sun altitude
Rises 17:33:09 0° 325° (NW) 3,538 8.1 -20.2°
Reaches altitude 10° 17:35:42 10° 327° (NNW) 2,581 7.3 -20.6°
Maximum altitude 17:41:42 76° 53° (NE) 913 4.2 -21.6°
Enters shadow 17:43:53 41° 131° (SE) 1,262 4.7 -22.0°
